[[{"header":{"parameterUnit":"m.s-1","parameterCategory":1,"la1":30.2991,"la2":30.254,"lo1":-89.0895,"lo2":-89.0444,"dy":0.0017,"dx":0.0017,"nx":28,"ny":28,"refTime":"2025-07-16T09:00:00:Z","depth":0,"parameterNumber":2,"parameterNumberName":"U-component_of_WINDS"},"data":[0,0,0,0,0,0,0,0,0,0,0,0,0,0,0,0,0,0,0,0,0,0,0,0,0,0,0,0,0,0,0,0,0,0,0,0,0,0,0,0,0,0,0,0,0,0,0,0,0,0,0,0,0,0,0,0,0,0,-4.2653,-4.2657,0,-4.3069,-4.3073,-4.3078,-4.3229,-4.3227,-4.3226,-4.3224,-4.3641,-4.3653,-4.3665,0,0,0,0,0,0,0,0,0,0,0,0,0,-4.1986,-4.1997,-4.2652,-4.2658,-4.2663,-4.3068,-4.3074,-4.3079,-4.3229,-4.3227,-4.3225,-4.3224,-4.3637,-4.3651,-4.3666,0,0,0,0,0,0,0,0,0,0,0,0,0,-4.2325,-4.2001,-4.2651,-4.2786,-4.2803,-4.3067,-4.3074,-4.3081,-4.3229,-4.3227,-4.3225,-4.3223,-4.3632,-4.365,-4.3668,-4.3826,0,0,-4.3725,-4.3733,0,0,0,0,0,0,0,0,-4.2306,-4.235,-4.2761,-4.2778,-4.2796,-4.3095,-4.2992,-4.333,-4.323,-4.3067,-4.3224,-4.3222,-4.346,-4.3493,-4.3575,-4.3845,-4.3863,-4.3727,-4.3738,-4.3746,-4.3751,0,0,0,0,0,0,0,-4.2282,-4.2333,-4.2817,-4.2767,-4.2789,-4.2826,-4.2872,-4.3056,-4.327,-4.3081,-4.3093,-4.3141,-4.3469,-4.3557,-4.3586,-4.3869,-4.3726,-4.3743,-4.3754,-4.3762,-4.4298,-4.4301,0,0,0,0,0,0,-4.2237,-4.2312,-4.2804,-4.2829,-4.2541,-4.2839,-4.2891,-4.3001,-4.3269,-4.3307,-4.3142,-4.3146,-4.3526,-4.3564,-4.3601,-4.3808,-4.3746,-4.3763,-4.3774,-4.4295,-4.4299,-4.4302,0,0,0,0,0,0,-4.2222,-4.2279,-4.2787,-4.2574,-4.2642,-4.2853,-4.2976,-4.301,-4.3098,-4.3315,-4.3353,-4.3192,-4.3526,-4.3575,-4.3772,-4.3824,-4.3772,-4.3789,-4.4292,-4.4296,-4.4301,-4.4219,0,0,0,0,0,0,-4.2202,-4.2273,-4.2334,-4.2575,-4.2653,-4.295,-4.2979,-4.302,-4.3131,-4.314,-4.3372,-4.3408,-4.3528,-4.3743,-4.379,-4.3849,-4.3803,-4.4288,-4.4294,-4.4299,-4.4218,-4.422,-4.4222,0,0,0,0,0,-4.2178,-4.2291,-4.2337,-4.2395,-4.2734,-4.2952,-4.2997,-4.3135,-4.3134,-4.3199,-4.334,-4.3401,-4.3812,-4.3762,-4.3816,-4.3881,-4.4285,-4.4292,-4.4299,-4.4217,-4.422,-4.4222,0,0,0,0,0,0,-4.2045,-4.2324,-4.2378,-4.2573,-4.2739,-4.2977,-4.3061,-4.3132,-4.3299,-4.33,-4.3462,-4.3513,-4.3698,-4.381,-4.3749,-4.4053,-4.4053,-4.4071,-4.3972,-4.3976,-4.3978,-4.3946,-4.3819,0,0,0,0,0,-4.204,-4.2195,-4.243,-4.2579,-4.2661,-4.2847,-4.2947,-4.3041,-4.3217,-4.3287,-4.3441,-4.3609,-4.3777,-4.3883,-4.4049,-4.4237,-4.4291,-4.4309,-4.4311,-4.4312,-4.4325,-4.4439,-4.4451,-4.4325,-4.4325,-4.4325,0,0,-4.2027,-4.2199,-4.2286,-4.2557,-4.2697,-4.2855,-4.2904,-4.3067,-4.3186,-4.331,-4.3507,-4.3628,-4.3826,-4.402,-4.4113,-4.4119,-4.4373,-4.4321,-4.432,-4.4333,-4.4447,-4.4459,-4.4469,-4.433,-4.4329,-4.4328,0,0,-4.2086,-4.2231,-4.2375,-4.2516,-4.2729,-4.2854,-4.2889,-4.3121,-4.3207,-4.3408,-4.3507,-4.3651,-4.3935,-4.4075,-4.4182,-4.4306,-4.437,-4.4356,-4.4366,-4.4475,-4.4485,-4.4495,-4.4541,-4.4556,-4.4369,-4.4368,-4.4368,0,-4.2042,-4.2286,-4.2438,-4.26,-4.2717,-4.2845,-4.2992,-4.3121,-4.3375,-4.3454,-4.3458,-4.3824,-4.3965,-4.4197,-4.4229,-4.4311,-4.4357,-4.4328,-4.4472,-4.4483,-4.4494,-4.4541,-4.4557,-4.4365,-4.4366,-4.4366,-4.4366,0,-4.2225,-4.2392,-4.2483,-4.2732,-4.2861,-4.3013,-4.3189,-4.3301,-4.3387,-4.3511,-4.3718,-4.3895,-4.4102,-4.4165,-4.4246,-4.4411,-4.4409,-4.444,-4.4443,-4.45,-4.4547,-4.4566,-4.4361,-4.4362,-4.4363,-4.4364,0,0,-4.2203,-4.2543,-4.2574,-4.2692,-4.2941,-4.3074,-4.3235,-4.3443,-4.3537,-4.3711,-4.3851,-4.4095,-4.4129,-4.4251,-4.4351,-4.4447,-4.4539,-4.4469,-4.4476,-4.4476,-4.4736,-4.471,-4.4728,-4.4586,-4.459,-4.4593,-4.472,0,-4.2296,-4.2592,-4.2738,-4.297,-4.313,-4.3258,-4.34,-4.3568,-4.3692,-4.3845,-4.3982,-4.4153,-4.4183,-4.4259,-4.436,-4.4506,-4.4593,-4.4499,-4.4717,-4.4723,-4.4662,-4.4752,-4.4723,-4.4834,-4.4739,-4.4742,-4.4745,0,-4.2441,-4.2621,-4.287,-4.311,-4.3182,-4.3306,-4.3513,-4.3658,-4.3854,-4.3938,-4.408,-4.418,-4.4356,-4.435,-4.4598,-4.4531,-4.463,-4.4716,-4.4724,-4.4747,-4.4735,-4.4778,-4.4873,-4.4889,-4.4774,-4.4772,-4.477,0,-4.2403,-4.2708,-4.2899,-4.2996,-4.3278,-4.3363,-4.3485,-4.368,-4.3798,-4.3979,-4.4058,-4.4254,-4.4362,-4.4513,-4.4664,-4.4645,-4.4898,-4.4903,-4.4973,-4.4969,-4.5017,-4.5011,-4.5128,-4.5082,-4.5081,-4.5081,-4.5081,0,-4.2491,-4.2638,-4.2887,-4.3003,-4.3175,-4.3344,-4.3509,-4.364,-4.3814,-4.396,-4.4082,-4.4216,-4.4408,-4.4567,-4.4686,-4.4875,-4.4922,-4.4995,-4.5025,-4.4984,-4.4975,-4.5049,-4.5044,-4.5086,-4.5085,-4.5084,-4.5083,0,-4.2475,-4.2647,-4.2864,-4.3118,-4.3185,-4.3301,-4.3518,-4.3637,-4.3771,-4.3954,-4.4007,-4.4216,-4.441,-4.4578,-4.4831,-4.4912,-4.5107,-4.5143,-4.5041,-4.5057,-4.5118,-4.511,-4.5285,-4.5318,-4.5249,-4.5249,-4.525,0,-4.2518,-4.2637,-4.2906,-4.3014,-4.3136,-4.3307,-4.3432,-4.3605,-4.3728,-4.3967,-4.4058,-4.4263,-4.4435,-4.4739,-4.4913,-4.511,-4.5152,-4.5201,-4.5181,-4.5139,-4.5154,-4.5145,-4.5159,-4.5199,-4.5199,-4.5199,-4.5199,0,-4.2578,-4.266,-4.2835,-4.3043,-4.3189,-4.336,-4.3533,-4.3615,-4.3821,-4.3955,-4.4158,-4.4292,-4.4557,-4.4759,-4.4977,-4.5102,-4.5185,-4.5205,-4.5232,-4.5189,-4.5126,-4.5163,-4.5043,-4.5199,-4.5199,-4.5199,-4.5199,-4.5199,-4.2595,-4.2708,-4.2918,-4.3111,-4.3262,-4.3424,-4.3551,-4.3705,-4.3878,-4.4109,-4.4202,-4.4409,-4.461,-4.4913,-4.5039,-4.5205,-4.5217,-4.5255,-4.5265,-4.5271,-4.5266,-4.5102,-4.5245,-4.5245,-4.5245,-4.5246,-4.5246,0,-4.2662,-4.2806,-4.2982,-4.3226,-4.3379,-4.3451,-4.365,-4.3772,-4.3955,-4.4137,-4.4307,-4.4543,-4.4742,-4.4936,-4.5146,-4.5241,-4.5285,-4.529,-4.5284,-4.5312,-4.5241,-4.5198,-4.5252,-4.5252,-4.5252,-4.5252,-4.5252,-4.5252,-4.2715,-4.2913,-4.3021,-4.3297,-4.344,-4.3647,-4.3755,-4.3907,-4.4054,-4.4313,-4.4481,-4.4608,-4.4797,-4.5023,-4.521,-4.5262,-4.5333,-4.5328,-4.539,-4.5319,-4.5316,-4.5313,-4.5274,-4.5342,-4.5343,-4.5448,-4.5449,-4.5449]},{"header":{"parameterUnit":"m.s-1","parameterCategory":1,"la1":30.2991,"la2":30.254,"lo1":-89.0895,"lo2":-89.0444,"dy":0.0017,"dx":0.0017,"nx":28,"ny":28,"refTime":"2025-07-16T09:00:00:Z","depth":0,"parameterNumber":3,"parameterNumberName":"V-component_of_WINDS"},"data":[0,0,0,0,0,0,0,0,0,0,0,0,0,0,0,0,0,0,0,0,0,0,0,0,0,0,0,0,0,0,0,0,0,0,0,0,0,0,0,0,0,0,0,0,0,0,0,0,0,0,0,0,0,0,0,0,0,0,-1.0074,-1.0074,0,-1.0096,-1.0097,-1.0097,-1.0012,-1.0009,-1.0006,-1.0004,-1.0035,-1.0038,-1.0041,0,0,0,0,0,0,0,0,0,0,0,0,0,-0.9962,-0.9964,-1.0074,-1.0074,-1.0074,-1.0096,-1.0097,-1.0097,-1.0012,-1.0009,-1.0006,-1.0003,-1.0034,-1.0038,-1.0042,0,0,0,0,0,0,0,0,0,0,0,0,0,-1.0,-0.9965,-1.0074,-1.0034,-1.0031,-1.0096,-1.0097,-1.0097,-1.0013,-1.0009,-1.0005,-1.0001,-1.0033,-1.0037,-1.0042,-1.0149,0,0,-1.0057,-1.0059,0,0,0,0,0,0,0,0,-0.9998,-1.0005,-1.004,-1.0037,-1.0034,-1.0047,-1.0068,-1.0115,-1.0014,-1.002,-1.0004,-0.9999,-1.0043,-1.0046,-1.0059,-1.015,-1.0152,-1.0057,-1.006,-1.0062,-1.0064,0,0,0,0,0,0,0,-0.9996,-1.0003,-1.0083,-1.0041,-1.0037,-1.0017,-1.0018,-1.0077,-1.0053,-1.0019,-1.0013,-1.0016,-1.004,-1.0055,-1.006,-1.0152,-1.0057,-1.0062,-1.0065,-1.0066,-1.0332,-1.0336,0,0,0,0,0,0,-0.9997,-1.0002,-1.0082,-1.0084,-1.0006,-1.0022,-1.0024,-1.0047,-1.0052,-1.0049,-1.002,-1.0012,-1.0049,-1.0054,-1.006,-1.0187,-1.0062,-1.0067,-1.007,-1.0327,-1.0333,-1.0337,0,0,0,0,0,0,-0.9995,-1.0005,-1.0081,-1.0041,-1.0049,-1.0028,-1.0055,-1.0049,-1.0064,-1.0052,-1.0048,-1.0039,-1.0046,-1.0054,-1.0127,-1.0187,-1.0069,-1.0073,-1.0323,-1.0329,-1.0335,-1.0442,0,0,0,0,0,0,-0.9993,-1.0005,-1.0045,-1.0042,-1.0051,-1.0147,-1.0059,-1.0052,-1.0072,-1.0062,-1.0069,-1.0067,-1.0043,-1.012,-1.0132,-1.0192,-1.0077,-1.0317,-1.0325,-1.0333,-1.0433,-1.0451,-1.0466,0,0,0,0,0,-0.9989,-1.0076,-1.0048,-1.0058,-1.01,-1.0151,-1.0156,-1.0125,-1.0077,-1.0117,-1.0109,-1.0067,-1.0177,-1.0128,-1.0141,-1.0203,-1.0314,-1.0323,-1.0332,-1.0425,-1.0447,-1.0466,0,0,0,0,0,0,-1.009,-1.0075,-1.0044,-1.0132,-1.0143,-1.0136,-1.0187,-1.0149,-1.0177,-1.0167,-1.0129,-1.0132,-1.0213,-1.0214,-1.016,-1.0306,-1.0237,-1.0249,-1.0304,-1.0324,-1.0341,-1.0342,-1.0081,0,0,0,0,0,-1.0122,-1.0162,-1.0147,-1.0227,-1.0233,-1.0209,-1.023,-1.0204,-1.0215,-1.022,-1.0218,-1.0232,-1.0269,-1.0296,-1.033,-1.0429,-1.0432,-1.0478,-1.0495,-1.0508,-1.0522,-1.0576,-1.0598,-1.0368,-1.0368,-1.0367,0,0,-1.0191,-1.0187,-1.0215,-1.0247,-1.0252,-1.0297,-1.0214,-1.0265,-1.0298,-1.0229,-1.0299,-1.0296,-1.0309,-1.0397,-1.0435,-1.0401,-1.0584,-1.052,-1.0531,-1.0538,-1.0588,-1.061,-1.0629,-1.0374,-1.0373,-1.0372,0,0,-1.0339,-1.0338,-1.0405,-1.041,-1.0418,-1.04,-1.0416,-1.0414,-1.0409,-1.0477,-1.0426,-1.0465,-1.053,-1.0542,-1.0557,-1.0703,-1.0666,-1.0714,-1.0805,-1.0858,-1.0876,-1.0892,-1.0948,-1.0968,-1.0726,-1.0726,-1.0726,0,-1.0424,-1.0487,-1.0445,-1.0498,-1.0515,-1.0448,-1.0517,-1.0525,-1.0545,-1.0559,-1.0517,-1.0597,-1.0601,-1.0691,-1.0726,-1.0738,-1.0758,-1.0717,-1.0876,-1.0892,-1.0906,-1.096,-1.098,-1.0732,-1.0732,-1.0731,-1.0731,0,-1.0593,-1.0637,-1.0689,-1.0707,-1.0728,-1.0789,-1.0758,-1.0784,-1.0755,-1.0742,-1.0812,-1.0812,-1.0846,-1.0863,-1.0837,-1.095,-1.0928,-1.0882,-1.0813,-1.0935,-1.0985,-1.1005,-1.0741,-1.0739,-1.0737,-1.0736,0,0,-1.0814,-1.0802,-1.0823,-1.083,-1.0831,-1.0865,-1.0922,-1.0951,-1.0976,-1.0989,-1.1039,-1.1093,-1.1049,-1.1066,-1.1038,-1.1084,-1.1204,-1.1032,-1.1032,-1.1069,-1.1332,-1.1371,-1.1396,-1.1175,-1.1179,-1.1182,-1.1332,0,-1.0962,-1.1059,-1.102,-1.1121,-1.1162,-1.1097,-1.1146,-1.1153,-1.1141,-1.1175,-1.1161,-1.1202,-1.1139,-1.1149,-1.119,-1.1181,-1.1257,-1.1168,-1.1226,-1.1228,-1.1231,-1.1421,-1.1464,-1.1606,-1.1351,-1.1354,-1.1356,0,-1.1151,-1.1169,-1.1274,-1.1266,-1.1282,-1.1327,-1.135,-1.1382,-1.1388,-1.1375,-1.1391,-1.1352,-1.1409,-1.1334,-1.1413,-1.1354,-1.1373,-1.1371,-1.1376,-1.1386,-1.1305,-1.1442,-1.165,-1.1674,-1.1385,-1.1383,-1.1381,0,-1.1308,-1.1358,-1.1427,-1.1434,-1.1425,-1.1459,-1.1457,-1.1458,-1.1478,-1.1497,-1.151,-1.1536,-1.1553,-1.1575,-1.1545,-1.1492,-1.163,-1.1551,-1.1625,-1.1626,-1.1664,-1.1663,-1.1885,-1.1665,-1.1665,-1.1664,-1.1664,0,-1.1482,-1.155,-1.1497,-1.1541,-1.1614,-1.1567,-1.1642,-1.1633,-1.1634,-1.1676,-1.1618,-1.1659,-1.1613,-1.165,-1.1626,-1.1697,-1.1703,-1.1698,-1.1692,-1.1707,-1.1709,-1.1726,-1.1718,-1.167,-1.1669,-1.1667,-1.1667,0,-1.1674,-1.164,-1.1712,-1.1695,-1.1692,-1.1748,-1.1735,-1.1775,-1.1755,-1.1808,-1.1818,-1.1789,-1.1829,-1.1798,-1.1838,-1.1821,-1.1917,-1.1894,-1.1916,-1.1912,-1.1989,-1.1985,-1.2235,-1.2267,-1.2021,-1.2023,-1.2025,0,-1.1792,-1.1842,-1.1829,-1.1851,-1.1852,-1.1889,-1.1907,-1.1861,-1.1883,-1.189,-1.1931,-1.1964,-1.199,-1.2056,-1.204,-1.207,-1.2051,-1.2136,-1.2056,-1.2069,-1.2059,-1.206,-1.2066,-1.2156,-1.2158,-1.2161,-1.2163,0,-1.2005,-1.1985,-1.2012,-1.2034,-1.2056,-1.2071,-1.2082,-1.2104,-1.2056,-1.2084,-1.2122,-1.2141,-1.2179,-1.2215,-1.2238,-1.2237,-1.2195,-1.2186,-1.2206,-1.2226,-1.2239,-1.2239,-1.1967,-1.2183,-1.2181,-1.218,-1.2179,-1.2178,-1.2168,-1.2209,-1.2206,-1.2239,-1.224,-1.2251,-1.2288,-1.227,-1.2301,-1.2327,-1.2296,-1.2344,-1.2346,-1.2372,-1.2376,-1.2413,-1.2379,-1.2406,-1.2414,-1.2424,-1.2438,-1.2226,-1.2417,-1.2416,-1.2415,-1.2415,-1.2414,0,-1.2384,-1.2376,-1.2406,-1.2421,-1.2447,-1.2396,-1.2404,-1.243,-1.2472,-1.2475,-1.25,-1.2544,-1.2576,-1.256,-1.2589,-1.2622,-1.2603,-1.2632,-1.2633,-1.2635,-1.2464,-1.2447,-1.2647,-1.2647,-1.2647,-1.2647,-1.2647,-1.2647,-1.25,-1.2568,-1.2547,-1.2616,-1.2608,-1.2652,-1.2662,-1.2672,-1.2674,-1.2725,-1.2751,-1.2737,-1.2734,-1.2761,-1.2789,-1.2783,-1.28,-1.2837,-1.2826,-1.2669,-1.2646,-1.2625,-1.2609,-1.2839,-1.284,-1.2993,-1.2995,-1.2996]}]]